Regional Weather Roundup
Issued by NWS Upton, NY

Current Version | Previous Version | Graphics & Text | Print | Product List | Glossary Off
Versions: 1 2 3 4 5 6 7 8 9 10 11 12 13 14 15 16 17 18 19 20 21 22 23 24 25 26 27 28 29 30 31 32 33 34 35 36 37 38 39 40 41 42 43 44 45 46 47 48 49 50

000
ASUS41 KOKX 022104
RWROKX

REGIONAL WEATHER ROUNDUP
NATIONAL WEATHER SERVICE NEW YORK NY
500 PM EDT SUN AUG 02 2015

NOTE: "FAIR" INDICATES FEW OR NO CLOUDS BELOW 12,000 FEET WITH NO
SIGNIFICANT WEATHER AND/OR OBSTRUCTIONS TO VISIBILITY.

NYZ071-072-176-178-NJZ106-104-022200-
NEW YORK CITY METRO AREA


CITY           SKY/WX    TMP DP  RH WIND       PRES   REMARKS
CENTRAL PARK   SUNNY     85  59  41 MISG      29.91S
LAGUARDIA APRT PTSUNNY   86  59  39 S14       29.88S
KENNEDY INTL   MOSUNNY   85  62  46 S14       29.90F
NEWARK/LIBERTY PTSUNNY   86  59  39 S10       29.87F
BRNX BOT. GARD   N/A     84  57  39 SE25      29.89F
TETERBORO      MOSUNNY   87  55  33 S14       29.86F
$$

NYZ177-179-078>081-022200-
LONG ISLAND NEW YORK

CITY           SKY/WX    TMP DP  RH WIND       PRES   REMARKS
FARMINGDALE    SUNNY     84  59  42 S12       29.90F
ISLIP          PTSUNNY   83  60  45 S10       29.89S
SHIRLEY        SUNNY     84  58  40 S10       29.91F
WESTHAMPTON    SUNNY     83  64  52 S10       29.92F
MONTAUK POINT    N/A     81  64  56 VRB6      29.93S
$$

NYZ052-065-067-022200-
HUDSON VALLEY

CITY           SKY/WX    TMP DP  RH WIND       PRES   REMARKS
WHITE PLAINS   MOSUNNY   84  56  38 SE9       29.88F
NEWBURGH       MOSUNNY   86  55  35 W13G23    29.90S
MONTGOMERY     PTSUNNY   83  57  41 SW9       29.88F
POUGHKEEPSIE   MOSUNNY   88  51  28 W14G25    29.86F
ALBANY         MOSUNNY   87  57  35 SW7       29.84F
$$

NJZ001-105-106-008-010-013-015-019>022-104-022200-
NEW JERSEY

CITY           SKY/WX    TMP DP  RH WIND       PRES   REMARKS
NEWARK/LIBERTY PTSUNNY   86  59  39 S10       29.87F
TETERBORO      MOSUNNY   87  55  33 S14       29.86F
CALDWELL       SUNNY     87  49  26 W8        29.88F
MORRISTOWN     SUNNY     90  52  27 W13       29.88F
SOMERVILLE     SUNNY     87  52  29 S10G16    29.87F
SUSSEX         PTSUNNY   83  55  38 SW7G18    29.89F
ANDOVER          N/A     83  57  41 SW8       29.90F
TRENTON        SUNNY     88  51  28 W10       29.89F
MILLVILLE      SUNNY     89  55  31 NW12      29.92S
ATLANTIC CITY  SUNNY     87  60  40 S12       29.91S
WRIGHTSTOWN    NOT AVBL
TOMS RIVER       N/A     88  52  29 W6        29.90S
BELMAR         SUNNY     84  61  45 S10       29.91R
$$

PAZ047>061-062-071-022200-
EASTERN PENNSYLVANIA

CITY           SKY/WX    TMP DP  RH WIND       PRES   REMARKS
PHILADELPHIA   PTSUNNY   89  50  26 SW10      29.91F
ALLENTOWN      MOSUNNY   84  59  42 SW12      29.90F
SCRANTON       MOSUNNY   84  56  38 SW10      29.89F
$$

CTZ002-004>006-009-010-012-RIZ004-006-007-MAZ004-011-015-022200-
SOUTHERN NEW ENGLAND
 IN CT

CITY           SKY/WX    TMP DP  RH WIND       PRES   REMARKS
BRADLEY INTL   MOSUNNY   87  54  32 SW14      29.87S
HARTFORD       PTSUNNY   85  57  38 S10       29.87S
DANBURY        MOSUNNY   83  55  38 S7        29.90S
WTRBRY/OXFORD  MOSUNNY   82  59  44 SW9       29.94S
BRIDGEPORT     SUNNY     83  61  47 S8        29.89F
MERIDEN        MOSUNNY   87  55  33 S13G23    29.89S
NEW HAVEN      SUNNY     83  60  45 SE9       29.90S
CHESTER        FAIR      82  57  42 S8G17     29.92S
GROTON         SUNNY     78  63  59 S9        29.90S
WILLIMANTIC    MOSUNNY   85  56  37 SW12G18   29.89S

 IN RI

CITY           SKY/WX    TMP DP  RH WIND       PRES   REMARKS
PROVIDENCE     MOSUNNY   85  56  37 S15       29.90R
BLOCK ISLAND     N/A     79  66  65 SW13      29.93F
WESTERLY       SUNNY     81  58  45 S10       29.92S

 IN MA

CITY           SKY/WX    TMP DP  RH WIND       PRES   REMARKS
BOSTON         MOSUNNY   86  51  29 W18G26    29.86F
WORCESTER      MOSUNNY   80  53  39 SW12      29.92S
WESTFIELD      SUNNY     86  54  33 S14       29.87F
PROVINCETOWN   SUNNY     82  59  44 S10G16    29.89S
NANTUCKET      SUNNY     77  67  71 S10       29.93R
$$

ANZ330-335-338-340-345-350-353-355-022200-
COASTAL MARINE OBSERVATIONS


STATION/POSITION TIME  SKY/WX   TEMP    WIND        PRES    VSBY  WAVE
                                AIR SEA DIR/SP/G                  HT/PER
                 (UTC)          (F)     (DEG/KT/KT) (MB)    (MI)  (FT/S)
NY HARB ENTRANCE 1950            78 79  170/  8/ 10 1012.8          3/ 7
4S FIRE IS       NOT AVBL
20S FIRE ISLAND  1950            78 78  210/  6/  6 1012.8          3/ 8
GREAT SOUTH BAY  2000            78 82  200/ 10/ 12   N/A
23SW MTP         2050            77 76  200/  8/  8 1013.0          3/ 8
HUDSON CANYON    NOT AVBL
KINGS POINT      2000            83 72  220/ 11/ 13 1011.3
EXECUTION ROCKS  2000            80     200/  6/  8   N/A
CENTRAL LI SOUND NOT AVBL
EASTERN LI SOUND 2000            73 69  160/  2/  4   N/A
ROBBINS REEF     2000            76     170/ 17/ 19 1011.1
$$


>>>>>>>>>>>>>>>>>>>>>>>>>>>> KEY <<<<<<<<<<<<<<<<<<<<<<<<<<<
>                                                          <
>     SKY/WX - SKY CONDITION/PRESENT WEATHER               <
>     TMP    - TEMPERATURE IN FAHRENHEIT                   <
>     DP     - DEWPOINT IN FAHRENHEIT                      <
>     RH     - RELATIVE HUMIDITY IN PERCENT                <
>     WIND   - DIRECTION AND SPEED IN MPH                  <
>     PRES   - MEAN SEA LEVEL PRESSURE IN INCHES OF HG     <
>     WCI    - WIND CHILL INDEX                            <
>     VSB    - VISIBILITY IN MILES                         <
>     HX     - HEAT INDEX                                  <
>     TC     - TEMPERATURE IN CELSIUS                      <
>     VRB    - VARIABLE WIND DIRECTION                     <
>                                                          <
>>>>>>>>>>>>>>>>>>>>>>>>>>>> KEY <<<<<<<<<<<<<<<<<<<<<<<<<<<





USA.gov is the U.S. government's official web portal to all federal, state and local government web resources and services.